STAR ONE D1 (41904 NORAD) Tracking and Keplerian Element Data

This shows tracking and keplerian element data for the satellite.

Feedback or suggestion? Click here.




ElementValue
Catalog41904
NameSTAR ONE D1
Epoch Orbit1062
Epoch Day316.81608067
Epoch Year2019
RAAN312.6141
Inclination0.0124
Eccentricity0.0001098
Argument of Perigee253.9517
Mean Anonmoly54.893
Mean Motion1.00269861
Decay Rate-1.96E-06
L11 41904U 16082B 19316.81608067 -.00000196 00000-0 00000-0 0 9998
L22 41904 0.0124 312.6141 0001098 253.9517 54.8930 1.00269861 10626

Live tracking and technical data element details for STAR ONE D1 (NORAD 41904). STAR ONE D1 can be tracked NOW for your location showing map with azimuth and elevation plus other details from your city location.

Track the satellite on the map from your city or location and see movement details for azimuth, elevation, latitude, longitude, range, height, and movement on the map or in text.







IsCatalogInMostPopularTable: catalog: 41904, numindb: 326
Update: records affected: 1



GetName: 41904 STAR ONE D1

Hit Count: updated at: Thu, 14 Nov 2019 07:33:49 GMT